Weather History for Grafton, ND

Change the Weather History Date:

Monday, October 22, 2012

  Actual Average Record
Temperature  
Mean Temperature 37 °F -  
Max Temperature 42 °F 54 °F 78 °F (1963)
Min Temperature 32 °F 33 °F 14 °F (1976)
Degree Days  
Heating Degree Days 28    
Moisture  
Dew Point 35 °F    
Average Humidity 90    
Maximum Humidity 100    
Minimum Humidity 81    
Precipitation  
Precipitation 0.00 in - - ()
Sea Level Pressure  
Sea Level Pressure 30.08 in    
Wind  
Wind Speed 7 mph (NNE)    
Max Wind Speed 14 mph    
Max Gust Speed 17 mph    
Visibility 10 miles    
Events Rain    
Averages and records for this station are not official NWS values.
T = Trace of Precipitation, MM = Missing Value Source: NWS Daily Summary

Daily Weather History Graph

Daily Weather History Graph

Search for Another Location

Airport:

Trip Planner

Search our weather history database for the weather conditions in past years. The results will help you decide how hot, cold, wet, or windy it might be!

Date:

Astronomy

Oct. 22, 2012 Rise Set
Actual Time 8:00 AM CDT 6:26 PM CDT
Civil Twilight 7:28 AM CDT 6:58 PM CDT
Nautical Twilight 6:52 AM CDT 7:34 PM CDT
Astronomical Twilight 6:15 AM CDT 8:10 PM CDT
Moon 3:04 PM CDT (10/22) 12:16 AM CDT (10/22)
Length of Visible Light 11h 29m
Length of Day
10h 25m
First Quarter, 56% of the Moon is Illuminated
Oct 22
First Quarter
Oct 29
Full
Nov 6
Last Quarter
Nov 13
New
Nov 20
First Quarter

Hourly Weather History & Observations

Time (CDT) Temp. Windchill Dew Point Humidity Pressure Visibility Wind Dir Wind Speed Gust Speed Precip Events Conditions
12:35 AM 37.4 °F 32.8 °F 32.0 °F 81% 30.09 in 10.0 mi NW 5.8 mph - N/A   Clear
12:55 AM 35.6 °F 30.7 °F 32.0 °F 87% 30.09 in 10.0 mi NW 5.8 mph - N/A   Clear
1:35 AM 33.8 °F 27.7 °F 32.0 °F 93% 30.09 in 10.0 mi NW 6.9 mph - N/A   Scattered Clouds
1:55 AM 33.8 °F 27.7 °F 32.0 °F 93% 30.09 in 10.0 mi NNW 6.9 mph - N/A   Partly Cloudy
2:55 AM 35.6 °F - 32.0 °F 87% 30.10 in 10.0 mi Calm Calm - N/A   Clear
3:15 AM 33.8 °F 27.7 °F 32.0 °F 93% 30.10 in 10.0 mi NNW 6.9 mph - N/A   Clear
3:55 AM 32.0 °F 26.4 °F 32.0 °F 100% 30.10 in 10.0 mi North 5.8 mph - N/A   Clear
4:55 AM 35.6 °F 30.7 °F 32.0 °F 87% 30.12 in 10.0 mi North 5.8 mph - N/A   Clear
5:15 AM 35.6 °F 29.9 °F 32.0 °F 87% 30.12 in 10.0 mi North 6.9 mph - N/A   Clear
5:35 AM 35.6 °F 30.7 °F 32.0 °F 87% 30.12 in 10.0 mi North 5.8 mph - N/A   Clear
6:15 AM 33.8 °F 29.6 °F 32.0 °F 93% 30.14 in 10.0 mi North 4.6 mph - N/A   Clear
6:35 AM 33.8 °F 29.6 °F 32.0 °F 93% 30.13 in 10.0 mi North 4.6 mph - N/A   Clear
7:15 AM 32.0 °F 27.5 °F 32.0 °F 100% 30.14 in 10.0 mi North 4.6 mph - N/A   Clear
7:35 AM 32.0 °F 27.5 °F 30.2 °F 93% 30.13 in 10.0 mi North 4.6 mph - N/A   Clear
9:35 AM 33.8 °F 27.7 °F 32.0 °F 93% 30.14 in 10.0 mi NNE 6.9 mph - N/A   Clear
9:55 AM 33.8 °F 28.6 °F 32.0 °F 93% 30.14 in 9.0 mi NE 5.8 mph - N/A   Clear
10:15 AM 35.6 °F 31.7 °F 32.0 °F 87% 30.14 in 10.0 mi NNE 4.6 mph - N/A   Partly Cloudy
10:35 AM 35.6 °F 32.8 °F 32.0 °F 87% 30.15 in 10.0 mi NNE 3.5 mph - N/A   Partly Cloudy
10:55 AM 35.6 °F 31.7 °F 32.0 °F 87% 30.15 in 10.0 mi North 4.6 mph - N/A   Scattered Clouds
11:35 AM 37.4 °F 32.8 °F 33.8 °F 87% 30.14 in 9.0 mi North 5.8 mph - N/A   Mostly Cloudy
11:55 AM 37.4 °F 32.8 °F 33.8 °F 87% 30.14 in 10.0 mi NE 5.8 mph - N/A   Mostly Cloudy
12:15 PM 37.4 °F 33.8 °F 33.8 °F 87% 30.14 in 10.0 mi NNE 4.6 mph - N/A   Overcast
12:35 PM 37.4 °F 32.8 °F 35.6 °F 93% 30.14 in 10.0 mi North 5.8 mph - N/A   Mostly Cloudy
12:55 PM 39.2 °F 33.0 °F 35.6 °F 87% 30.14 in 10.0 mi North 9.2 mph - N/A   Scattered Clouds
1:15 PM 39.2 °F 33.6 °F 35.6 °F 87% 30.13 in 10.0 mi North 8.1 mph - N/A   Mostly Cloudy
1:35 PM 39.2 °F 33.0 °F 37.4 °F 93% 30.12 in 10.0 mi North 9.2 mph - N/A   Mostly Cloudy
1:55 PM 39.2 °F 33.0 °F 37.4 °F 93% 30.10 in 10.0 mi NNE 9.2 mph - N/A   Mostly Cloudy
2:15 PM 41.0 °F 35.8 °F 37.4 °F 87% 30.10 in 10.0 mi North 8.1 mph - N/A   Overcast
2:35 PM 41.0 °F 35.2 °F 37.4 °F 87% 30.10 in 10.0 mi North 9.2 mph - N/A   Overcast
3:15 PM 41.0 °F 35.2 °F 37.4 °F 87% 30.08 in 10.0 mi North 9.2 mph 17.3 mph N/A   Mostly Cloudy
3:35 PM 41.0 °F 34.7 °F 37.4 °F 87% 30.07 in 10.0 mi North 10.4 mph - N/A   Mostly Cloudy
3:55 PM 41.0 °F 34.3 °F 37.4 °F 87% 30.06 in 10.0 mi NNE 11.5 mph 17.3 mph N/A   Overcast
4:15 PM 41.0 °F 33.9 °F 37.4 °F 87% 30.06 in 10.0 mi NNE 12.7 mph - N/A   Overcast
4:35 PM 41.0 °F 33.9 °F 39.2 °F 93% 30.06 in 10.0 mi NNE 12.7 mph - N/A   Overcast
5:15 PM 41.0 °F 34.3 °F 39.2 °F 93% 30.05 in 10.0 mi NNE 11.5 mph - N/A   Overcast
5:35 PM 42.8 °F 35.8 °F 39.2 °F 87% 30.04 in 10.0 mi NNE 13.8 mph - N/A   Mostly Cloudy
6:15 PM 41.0 °F 34.3 °F 39.2 °F 93% 30.04 in 10.0 mi NE 11.5 mph - N/A   Overcast
6:35 PM 41.0 °F 35.2 °F 39.2 °F 93% 30.04 in 10.0 mi NNE 9.2 mph - N/A   Mostly Cloudy
6:55 PM 41.0 °F 34.7 °F 37.4 °F 87% 30.04 in 10.0 mi NE 10.4 mph - N/A   Mostly Cloudy
7:35 PM 41.0 °F 35.2 °F 37.4 °F 87% 30.03 in 10.0 mi NE 9.2 mph - N/A   Scattered Clouds
8:55 PM 41.0 °F 35.2 °F 37.4 °F 87% 30.01 in 10.0 mi NE 9.2 mph - N/A   Clear
9:15 PM 41.0 °F 35.8 °F 37.4 °F 87% 30.02 in 10.0 mi NE 8.1 mph - N/A   Clear
9:55 PM 41.0 °F 35.8 °F 37.4 °F 87% 30.00 in 10.0 mi NE 8.1 mph - N/A   Clear
10:35 PM 41.0 °F 36.4 °F 39.2 °F 93% 29.99 in 7.0 mi NE 6.9 mph - N/A Rain Light Rain
11:15 PM 41.0 °F 35.8 °F 39.2 °F 93% 29.97 in 9.0 mi NNE 8.1 mph - N/A Rain Light Rain
11:35 PM 41.0 °F 35.8 °F 39.2 °F 93% 29.95 in 8.0 mi NNE 8.1 mph - N/A Rain Light Rain
11:55 PM 41.0 °F 34.7 °F 39.2 °F 93% 29.93 in 10.0 mi NNE 10.4 mph - N/A Rain Light Rain